Location: Niverville
(49.6028°N, 97.0419°W)
Time: 13:11:34
(UTC-06:00)

ISS - All Passes

Search period start: 31 January 2015 00:00
Search period end: 10 February 2015 00:00
Orbit: 400 x 408 km, 51.6° (Epoch: 31 January)

Date Brightness Start Highest point End Pass type
(mag) Time Alt. Az. Time Alt. Az. Time Alt. Az.
31 Jan - 01:02:09 10° W 01:05:25 58° N 01:08:42 10° E night (unlit)
31 Jan - 02:38:43 10° WNW 02:42:01 76° SSW 02:45:19 10° ESE night (unlit)
31 Jan - 04:15:45 10° W 04:18:08 18° SW 04:20:28 10° S night (unlit)
31 Jan - 20:58:39 10° S 21:00:29 14° SE 21:02:25 10° ESE night (unlit)
31 Jan - 22:33:15 10° WSW 22:36:30 64° SSE 22:39:47 10° ENE night (unlit)
01 Feb - 00:09:47 10° W 00:13:03 59° N 00:16:20 10° ENE night (unlit)
01 Feb - 01:46:24 10° WNW 01:49:43 80° NNE 01:53:02 10° ESE night (unlit)
01 Feb - 03:23:05 10° W 03:26:00 29° SW 03:28:54 10° SSE night (unlit)
01 Feb - 21:41:09 10° SW 21:44:15 42° SSE 21:47:24 10° ENE night (unlit)
01 Feb - 23:17:23 10° W 23:20:40 67° N 23:23:58 10° ENE night (unlit)
02 Feb - 00:54:04 10° WNW 00:57:22 65° N 01:00:39 10° E night (unlit)
02 Feb - 02:30:37 10° WNW 02:33:47 44° SSW 02:36:57 10° SE night (unlit)
02 Feb - 20:49:13 10° SSW 20:52:02 27° SE 20:54:53 10° E night (unlit)
02 Feb - 22:25:00 10° WSW 22:28:17 83° NNW 22:31:36 10° ENE night (unlit)
03 Feb - 00:01:41 10° WNW 00:04:57 59° N 00:08:13 10° E night (unlit)
03 Feb - 01:38:12 10° WNW 01:41:30 67° SSW 01:44:47 10° ESE night (unlit)
03 Feb - 03:15:27 10° W 03:17:32 16° SW 03:19:33 10° S night (unlit)
03 Feb - 19:57:39 10° S 19:59:51 17° SE 20:02:06 10° E visible
03 Feb - 21:32:39 10° WSW 21:35:55 73° SSE 21:39:12 10° ENE night (unlit)
03 Feb - 23:09:14 10° W 23:12:30 58° N 23:15:46 10° ENE night (unlit)
04 Feb - 00:45:49 10° WNW 00:49:08 88° N 00:52:26 10° ESE night (unlit)
04 Feb - 02:22:35 10° W 02:25:21 24° SW 02:28:05 10° SSE night (unlit)
04 Feb - 19:07:15 10° SE 19:07:40 10° SE 19:08:12 10° SE visible
04 Feb - 20:40:24 10° SW 20:43:34 48° SSE 20:46:46 10° ENE visible
04 Feb - 22:16:45 10° W 22:20:02 63° N 22:23:18 10° ENE night (unlit)
04 Feb - 23:53:24 10° WNW 23:56:42 70° NNE 00:00:00 10° E night (unlit)
05 Feb - 01:29:58 10° W 01:33:05 38° SSW 01:36:09 10° SE night (unlit)
05 Feb - 19:48:19 10° SSW 19:51:15 31° SSE 19:54:13 10° E visible
05 Feb - 21:24:16 10° W 21:27:33 76° NNW 21:30:51 10° ENE night (unlit)
05 Feb - 23:00:57 10° WNW 23:04:12 60° N 23:07:29 10° E night (unlit)
06 Feb - 00:37:28 10° WNW 00:40:43 59° SSW 00:43:58 10° SE night (unlit)
06 Feb - 02:15:01 10° WSW 02:16:42 13° SW 02:18:17 10° SSW night (unlit)
06 Feb - 18:56:31 10° S 18:58:57 20° SE 19:01:27 10° E visible
06 Feb - 20:31:48 10° WSW 20:35:05 81° SSE 20:38:23 10° ENE visible
06 Feb - 22:08:26 10° W 22:11:41 57° N 22:14:56 10° E night (unlit)
06 Feb - 23:45:00 10° WNW 23:48:17 84° SSW 23:51:35 10° ESE night (unlit)
07 Feb - 01:21:52 10° W 01:24:26 21° SW 01:26:59 10° SSE night (unlit)
07 Feb - 18:05:20 10° SSE 18:06:41 12° SE 18:08:09 10° ESE visible
07 Feb - 19:39:25 10° SW 19:42:38 56° SSE 19:45:52 10° ENE visible
07 Feb - 21:15:52 10° W 21:19:07 61° N 21:22:24 10° ENE visible
07 Feb - 22:52:30 10° WNW 22:55:47 75° NNE 22:59:05 10° E night (unlit)
08 Feb - 00:29:06 10° W 00:32:06 33° SSW 00:35:06 10° SSE night (unlit)
08 Feb - 18:47:11 10° SW 18:50:13 36° SSE 18:53:16 10° E visible
08 Feb - 20:23:17 10° W 20:26:34 71° NNW 20:29:51 10° ENE visible
08 Feb - 21:59:58 10° WNW 22:03:14 62° N 22:06:30 10° E night (unlit)
08 Feb - 23:36:29 10° WNW 23:39:41 51° SSW 23:42:54 10° SE night (unlit)
09 Feb - 01:14:34 10° WSW 01:15:36 11° SW 01:16:32 10° SSW night (unlit)
09 Feb - 17:55:11 10° SSW 17:57:49 23° SE 18:00:30 10° E daylight
09 Feb - 19:30:43 10° WSW 19:34:00 89° S 19:37:18 10° ENE visible
09 Feb - 21:07:22 10° W 21:10:37 57° N 21:13:52 10° E visible
09 Feb - 22:43:55 10° WNW 22:47:11 76° SSW 22:50:29 10° ESE night (unlit)
